This demonstration page uses our WeatherBlox Daily Observations layout. Learn more.

Left ArrowRight Arrow

Hourly Observations for April 10, 2020

Temp ( °F °C ) Dew Point ( °F °C ) Humidity (%) Winds ( mph kmh ) Pressure ( in mb ) Visibility ( mi km ) Precip ( " mm )
12:52 am 00:52 Clear 29 -1.7 19 -7.2 66 66 N 7 11 30.24 1024 10 16 0.00 0.00
1:52 am 01:52 Clear 28 -2.2 19 -7.2 69 69 N 8 13 30.25 1025 10 16 0.00 0.00
2:52 am 02:52 Mostly Clear 27 -2.8 19 -7.2 72 72 N 3 6 30.25 1024 10 16 0.00 0.00
3:52 am 03:52 Partly Cloudy 28 -2.2 19 -7.2 69 69 Calm 30.24 1024 10 16 0.00 0.00
4:52 am 04:52 Mostly Clear 29 -1.7 18 -7.8 63 63 Calm 30.25 1024 10 16 0.00 0.00
5:52 am 05:52 Mostly Clear 27 -2.8 19 -7.2 72 72 Calm 30.23 1024 10 16 0.00 0.00
6:52 am 06:52 Mostly Sunny 26 -3.3 19 -7.2 75 75 ESE 5 7 30.21 1023 10 16 0.00 0.00
7:52 am 07:52 Mostly Sunny 30 -1.1 22 -5.6 72 72 S 5 7 30.23 1024 10 16 0.00 0.00
8:52 am 08:52 Mostly Sunny 35 1.7 22 -5.6 59 59 S 7 11 30.24 1024 10 16 0.00 0.00
9:52 am 09:52 Mostly Sunny 38 3.3 20 -6.7 48 48 SSW 8 13 30.22 1023 10 16 0.00 0.00
10:52 am 10:52 Mostly Sunny 40 4.4 21 -6.1 47 47 S 10 17 30.21 1023 10 16 0.00 0.00
11:52 am 11:52 Mostly Sunny 43 6.1 20 -6.7 40 40 S 15 24 30.18 1022 10 16 0.00 0.00
12:52 pm 12:52 Partly Cloudy 47 8.3 19 -7.2 33 33 S 10 17 30.12 1020 10 16 0.00 0.00
1:52 pm 13:52 Mostly Cloudy 49 9.4 19 -7.2 31 31 S 15 24 30.06 1018 10 16 0.00 0.00
2:52 pm 14:52 Mostly Cloudy 51 10.6 18 -7.8 27 27 S 18 30 30.01 1016 10 16 0.00 0.00
3:52 pm 15:52 Mostly Cloudy 54 12.2 19 -7.2 25 25 SSE 16 26 29.95 1014 10 16 0.00 0.00
4:52 pm 16:52 Mostly Cloudy 55 12.8 19 -7.2 24 24 S 16 26 29.90 1013 10 16 0.00 0.00
5:52 pm 17:52 Mostly Cloudy 56 13.3 19 -7.2 24 24 S 15 24 29.89 1012 10 16 0.00 0.00
6:52 pm 18:52 Mostly Cloudy 56 13.3 20 -6.7 24 24 SSW 15 24 29.87 1012 10 16 0.00 0.00
7:52 pm 19:52 Partly Cloudy 55 12.8 20 -6.7 25 25 SSW 9 15 29.86 1011 10 16 0.00 0.00
8:52 pm 20:52 Mostly Clear 47 8.3 23 -5 39 39 SSE 8 13 29.86 1011 9 14 0.00 0.00
9:52 pm 21:52 Mostly Clear with Smoke 48 8.9 24 -4.4 39 39 SSE 9 15 29.86 1011 4 6 0.00 0.00
10:52 pm 22:52 Clear with Smoke 48 8.9 24 -4.4 39 39 S 13 20 29.85 1011 5 8 0.00 0.00
11:52 pm 23:52 Clear 47 8.3 24 -4.4 41 41 S 13 20 29.84 1010 7 11 0.00 0.00

Powered by AerisWeather